SCP
0 0 0 0 0 0 0 0 0 0 0 0 0 0 0 0 0 0 0 0 0 0
0 0 0 0 0 0 0 0 0 0 0 0 0 0 0 0 0 0 0 0 0 0
0 0 0 0 0 0 0 0 0 0 0 0 0 0 0 0 0 0 0 0 0 0
0 0 0 0 0 0 0 0 0 0 0 0 0 0 0 0 0 0 0 0 0 0
0 0 0 0 0 0 0 0 0 0 0 0 0 0 0 0 0 0 0 0 0 0
0 0 0 0 0 0 0 0 0 0 0 0 0 0 0 0 0 0 0 0 0 0
0 0 0 0 0 0 0 0 0 0 0 0 0 0 0 0 0 0 0 0 0 0
0 0 0 0 0 0 0 0 0 0 0 0 0 0 0 0 0 0 0 0 0 0
0 0 0 0 0 0 0 0 0 0 0 0 0 0 0 0 0 0 0 0 0 0
0 0 0 0 0 0 0 0 0 0 0 0 0 0 0 0 0 0 0 0 0 0
0 0 0 0 0 0 0 0 0 0 0 0 0 0 0 0 0 0 0 0 0 0
0 0 0 0 0 0 0 0 0 0 0 0 0 0 0 0 0 0 0 0 0 0
0 0 0 0 0 0 0 0 0 0 0 0 0 0 0 0 0 0 0 0 0 0
0 0 0 0 0 0 0 0 0 0 0 0 0 0 0 0 0 0 0 0 0 0
Wind_Speed_500mb
73 61 76 84 81 75 82 60 75 72 77 74 78 69 70 61 50 57 60 57 57 61
36 53 70 72 61 45 53 61 62 68 72 47 68 79 40 46 58 45 42 41 41 32
20 29 39 46 52 48 50 69 60 54 40 39 48 52 53 56 37 31 40 34 35 36
19 11 24 30 36 36 35 21 31 36 35 31 37 40 33 25 25 29 31 25 22 18
44 42 40 39 30 27 22 18 18 22 18 23 13 20 20 23 23 22 23 17 12 8
43 42 40 36 39 34 28 29 28 26 26 24 22 18 16 13 13 16 18 13 6 6
33 30 29 26 23 18 17 17 16 18 15 14 12 8 5 9 11 8 6 8 13 15
23 21 22 21 21 19 20 20 17 15 15 12 13 15 15 15 18 12 13 19 18 13
31 29 26 25 22 18 17 15 13 13 16 16 15 12 13 13 15 18 15 11 11 13
36 31 29 28 24 23 23 23 22 21 20 22 23 24 22 22 18 17 18 16 16 14
37 36 32 27 26 25 26 24 24 23 22 19 20 20 17 16 15 14 14 13 12 10
35 31 28 26 26 25 21 22 21 21 19 17 16 17 16 15 13 12 12 11 10 7
31 28 26 25 22 23 22 19 20 19 17 15 14 15 13 12 12 10 9 8 6 5
24 24 22 21 19 17 16 14 14 12 11 10 10 10 9 8 8 7 7 5 6 6
Wind_Direction_500mb
246 243 233 231 230 236 227 229 225 230 233 238 231 240 241 223 238 222 227 240 243 248
232 213 211 219 218 217 232 237 236 238 251 257 234 247 219 216 224 216 223 239 241 238
212 231 240 208 229 225 242 233 244 231 232 237 224 237 224 216 200 212 221 228 227 225
122 139 189 219 219 216 207 234 210 240 222 202 176 190 195 200 208 217 211 197 199 186
106 104 108 120 125 120 135 142 156 171 176 160 155 176 192 206 208 188 163 150 172 187
102 104 102 98 106 101 93 102 107 101 98 98 108 99 88 105 141 155 147 139 138 196
84 86 95 103 101 109 113 119 128 138 135 122 136 144 189 216 222 190 150 166 167 155
88 91 96 98 101 102 106 105 109 108 109 120 138 157 170 187 180 174 177 157 148 145
94 95 98 98 93 87 82 85 96 112 111 114 126 133 145 146 142 139 140 151 158 158
90 89 86 89 94 99 101 102 103 104 107 116 116 112 119 123 132 142 148 149 146 137
86 86 84 87 92 94 98 100 99 100 103 106 114 116 121 126 135 139 141 145 141 143
85 84 88 93 95 97 97 101 104 109 114 121 126 128 133 136 139 146 151 153 153 156
89 89 89 87 89 93 95 97 104 109 120 129 143 145 149 153 165 168 177 179 186 204
82 84 84 85 86 87 92 95 99 105 116 135 154 154 170 191 200 211 221 241 254 266
Wind_Speed_850mb
73 61 76 84 81 75 82 60 75 72 77 74 78 69 70 61 50 57 60 57 57 61
36 53 70 72 61 45 53 61 62 68 72 47 68 79 40 46 58 45 42 41 41 32
20 29 39 46 52 48 50 69 60 54 40 39 48 52 53 56 37 31 40 34 35 36
19 11 24 30 36 36 35 21 31 36 35 31 37 40 33 25 25 29 31 25 22 18
44 42 40 39 30 27 22 18 18 22 18 23 13 20 20 23 23 22 23 17 12 8
43 42 40 36 39 34 28 29 28 26 26 24 22 18 16 13 13 16 18 13 6 6
33 30 29 26 23 18 17 17 16 18 15 14 12 8 5 9 11 8 6 8 13 15
23 21 22 21 21 19 20 20 17 15 15 12 13 15 15 15 18 12 13 19 18 13
31 29 26 25 22 18 17 15 13 13 16 16 15 12 13 13 15 18 15 11 11 13
36 31 29 28 24 23 23 23 22 21 20 22 23 24 22 22 18 17 18 16 16 14
37 36 32 27 26 25 26 24 24 23 22 19 20 20 17 16 15 14 14 13 12 10
35 31 28 26 26 25 21 22 21 21 19 17 16 17 16 15 13 12 12 11 10 7
31 28 26 25 22 23 22 19 20 19 17 15 14 15 13 12 12 10 9 8 6 5
24 24 22 21 19 17 16 14 14 12 11 10 10 10 9 8 8 7 7 5 6 6
Wind_Direction_850mb
246 243 233 231 230 236 227 229 225 230 233 238 231 240 241 223 238 222 227 240 243 248
232 213 211 219 218 217 232 237 236 238 251 257 234 247 219 216 224 216 223 239 241 238
212 231 240 208 229 225 242 233 244 231 232 237 224 237 224 216 200 212 221 228 227 225
122 139 189 219 219 216 207 234 210 240 222 202 176 190 195 200 208 217 211 197 199 186
106 104 108 120 125 120 135 142 156 171 176 160 155 176 192 206 208 188 163 150 172 187
102 104 102 98 106 101 93 102 107 101 98 98 108 99 88 105 141 155 147 139 138 196
84 86 95 103 101 109 113 119 128 138 135 122 136 144 189 216 222 190 150 166 167 155
88 91 96 98 101 102 106 105 109 108 109 120 138 157 170 187 180 174 177 157 148 145
94 95 98 98 93 87 82 85 96 112 111 114 126 133 145 146 142 139 140 151 158 158
90 89 86 89 94 99 101 102 103 104 107 116 116 112 119 123 132 142 148 149 146 137
86 86 84 87 92 94 98 100 99 100 103 106 114 116 121 126 135 139 141 145 141 143
85 84 88 93 95 97 97 101 104 109 114 121 126 128 133 136 139 146 151 153 153 156
89 89 89 87 89 93 95 97 104 109 120 129 143 145 149 153 165 168 177 179 186 204
82 84 84 85 86 87 92 95 99 105 116 135 154 154 170 191 200 211 221 241 254 266